WZZ562W EPPO-LFOB

Flight info

Callsign WZZ562W
Flight time N/A
Altitude 38000
Route ELSUP Z181 XIGRI PENEK POVEL EXOBA ABAMI TOLVU RAPOR VEDUS
Aircraft A20N/M-SDE2E3FGHIJ1RWXY/LB1

Departure

Time 2026-05-04 18:51
Airport Poznań-Ławica Airport (EPPO)

Arrival

Time N/A
Airport Beauvais-Tillé airport (LFOB)
Time Latitude Longitude Altitude Speed Heading
2026-05-04 18:33 52.41586 16.82911 288 ft 0 kts 192°
2026-05-04 18:41 52.41586 16.82912 288 ft 0 kts 192°
2026-05-04 18:41 52.41591 16.82913 288 ft 1 kts 192°
2026-05-04 18:41 52.41597 16.82915 288 ft 1 kts 192°
2026-05-04 18:41 52.41605 16.82918 288 ft 2 kts 192°
2026-05-04 18:42 52.41615 16.82922 288 ft 2 kts 192°
2026-05-04 18:42 52.41625 16.82926 288 ft 2 kts 180°
2026-05-04 18:42 52.41636 16.82921 288 ft 2 kts 120°
2026-05-04 18:42 52.41645 16.82903 290 ft 6 kts 146°
2026-05-04 18:43 52.41657 16.82886 288 ft 0 kts 100°
2026-05-04 18:43 52.41656 16.82889 288 ft 1 kts 105°
2026-05-04 18:43 52.41655 16.82897 288 ft 0 kts 105°
2026-05-04 18:43 52.41654 16.82905 289 ft 0 kts 105°
2026-05-04 18:44 52.41649 16.82945 290 ft 6 kts 100°
2026-05-04 18:44 52.41639 16.83033 291 ft 9 kts 101°
2026-05-04 18:45 52.41624 16.83151 294 ft 12 kts 105°
2026-05-04 18:45 52.41615 16.83206 288 ft 1 kts 105°
2026-05-04 18:45 52.41615 16.83207 288 ft 0 kts 105°
2026-05-04 18:46 52.41611 16.83230 291 ft 6 kts 105°
2026-05-04 18:46 52.41597 16.83318 292 ft 10 kts 104°
2026-05-04 18:46 52.41579 16.83445 288 ft 13 kts 102°
2026-05-04 18:47 52.41566 16.83601 288 ft 15 kts 94°
2026-05-04 18:47 52.41560 16.83783 288 ft 17 kts 92°
2026-05-04 18:47 52.41607 16.83956 288 ft 18 kts 46°
2026-05-04 18:47 52.41701 16.84023 288 ft 10 kts 20°
2026-05-04 18:48 52.41743 16.84048 288 ft 0 kts 20°
2026-05-04 18:49 52.41767 16.84062 288 ft 8 kts 19°
2026-05-04 18:49 52.41829 16.84068 293 ft 8 kts 338°
2026-05-04 18:49 52.41831 16.84062 292 ft 1 kts 304°
2026-05-04 18:49 52.41834 16.84030 289 ft 5 kts 284°
2026-05-04 18:50 52.41856 16.83938 291 ft 22 kts 288°
2026-05-04 18:50 52.41958 16.83406 292 ft 75 kts 288°
2026-05-04 18:50 52.42083 16.82760 287 ft 103 kts 288°
2026-05-04 18:50 52.42440 16.80937 299 ft 145 kts 289°
2026-05-04 18:51 52.42748 16.79423 630 ft 136 kts 289°
2026-05-04 18:51 52.42954 16.78437 745 ft 140 kts 290°
2026-05-04 18:51 52.43280 16.76943 1046 ft 137 kts 291°
2026-05-04 18:51 52.43751 16.74813 1228 ft 157 kts 290°
2026-05-04 18:52 52.44115 16.73091 1528 ft 160 kts 288°
2026-05-04 18:52 52.44388 16.71323 1874 ft 164 kts 284°
2026-05-04 18:52 52.44497 16.70518 1973 ft 170 kts 284°
2026-05-04 18:52 52.44906 16.67801 2324 ft 201 kts 286°
2026-05-04 18:53 52.45165 16.66323 2938 ft 199 kts 287°
2026-05-04 18:53 52.45711 16.63578 4355 ft 185 kts 288°
2026-05-04 18:53 52.46096 16.61797 4950 ft 195 kts 286°
2026-05-04 18:53 52.46380 16.60344 5283 ft 208 kts 285°
2026-05-04 18:54 52.46831 16.57932 5793 ft 228 kts 284°
2026-05-04 18:54 52.47315 16.55356 6310 ft 249 kts 285°
2026-05-04 18:54 52.47856 16.52558 6949 ft 262 kts 285°
2026-05-04 18:54 52.48384 16.49685 7899 ft 263 kts 280°
2026-05-04 18:55 52.48647 16.46726 8854 ft 263 kts 272°
2026-05-04 18:55 52.48963 16.40671 10522 ft 277 kts 272°
2026-05-04 18:55 52.49138 16.37398 10823 ft 300 kts 272°
2026-05-04 18:56 52.49328 16.33865 11219 ft 317 kts 273°
2026-05-04 18:56 52.49527 16.30234 12007 ft 321 kts 273°
2026-05-04 18:56 52.49728 16.26564 12829 ft 325 kts 272°
2026-05-04 18:56 52.49929 16.22847 13626 ft 329 kts 272°
2026-05-04 18:57 52.50129 16.19086 14304 ft 334 kts 272°
2026-05-04 18:57 52.50331 16.15258 14965 ft 339 kts 273°
2026-05-04 18:57 52.50534 16.11375 15633 ft 344 kts 273°
2026-05-04 18:57 52.50739 16.07445 16307 ft 348 kts 273°
2026-05-04 18:58 52.50945 16.03466 16965 ft 352 kts 273°
2026-05-04 18:58 52.51152 15.99438 17620 ft 356 kts 273°
2026-05-04 18:58 52.51361 15.95357 18272 ft 361 kts 273°
2026-05-04 18:58 52.51570 15.91241 18874 ft 363 kts 273°
2026-05-04 18:59 52.51779 15.87096 19491 ft 366 kts 273°
2026-05-04 18:59 52.51989 15.82918 20098 ft 368 kts 273°
2026-05-04 18:59 52.52198 15.78719 20693 ft 371 kts 273°
2026-05-04 18:59 52.52408 15.74478 21284 ft 374 kts 273°
2026-05-04 19:00 52.52592 15.70714 21799 ft 376 kts 273°
2026-05-04 19:00 52.52802 15.66414 22374 ft 379 kts 273°
2026-05-04 19:00 52.53012 15.62086 22948 ft 382 kts 273°
2026-05-04 19:00 52.53221 15.57725 23512 ft 385 kts 273°
2026-05-04 19:01 52.53431 15.53325 24010 ft 387 kts 273°
2026-05-04 19:01 52.53639 15.48917 24516 ft 388 kts 273°
2026-05-04 19:01 52.53846 15.44497 25026 ft 389 kts 273°
2026-05-04 19:01 52.53956 15.40054 25507 ft 390 kts 268°
2026-05-04 19:02 52.53815 15.35591 25978 ft 392 kts 266°
2026-05-04 19:02 52.53655 15.31120 26427 ft 394 kts 266°
2026-05-04 19:02 52.53499 15.26612 26889 ft 395 kts 266°
2026-05-04 19:02 52.53344 15.22096 27339 ft 397 kts 266°
2026-05-04 19:03 52.53185 15.17561 27775 ft 399 kts 266°
2026-05-04 19:03 52.53024 15.12998 28185 ft 401 kts 266°
2026-05-04 19:03 52.52859 15.08421 28589 ft 402 kts 266°
2026-05-04 19:03 52.52691 15.03825 28962 ft 404 kts 266°
2026-05-04 19:04 52.52521 14.99198 29348 ft 406 kts 266°
2026-05-04 19:04 52.52349 14.94559 29702 ft 408 kts 266°
2026-05-04 19:04 52.52177 14.89901 29953 ft 410 kts 266°
2026-05-04 19:04 52.52003 14.85217 30300 ft 411 kts 266°
2026-05-04 19:05 52.51827 14.80522 30635 ft 413 kts 266°
2026-05-04 19:05 52.51648 14.75815 30930 ft 415 kts 265°
2026-05-04 19:05 52.51500 14.71977 31222 ft 415 kts 265°
2026-05-04 19:05 52.51361 14.68401 31525 ft 414 kts 265°
2026-05-04 19:06 52.51177 14.63689 31948 ft 413 kts 265°
2026-05-04 19:06 52.51051 14.60513 32222 ft 412 kts 265°
2026-05-04 19:06 52.50841 14.55958 32619 ft 411 kts 264°
2026-05-04 19:06 52.50598 14.51292 33012 ft 410 kts 264°
2026-05-04 19:07 52.50350 14.46641 33378 ft 409 kts 264°
2026-05-04 19:07 52.50104 14.41995 33752 ft 408 kts 264°
2026-05-04 19:07 52.49861 14.37367 34076 ft 407 kts 264°
2026-05-04 19:07 52.49617 14.32736 34349 ft 407 kts 264°
2026-05-04 19:08 52.49373 14.28104 34604 ft 407 kts 264°
2026-05-04 19:08 52.49128 14.23487 34859 ft 407 kts 264°
2026-05-04 19:08 52.48881 14.18856 35103 ft 407 kts 264°
2026-05-04 19:08 52.48631 14.14230 35356 ft 407 kts 264°
2026-05-04 19:09 52.48380 14.09601 35587 ft 407 kts 264°
2026-05-04 19:09 52.48128 14.04982 35812 ft 407 kts 264°
2026-05-04 19:09 52.47873 14.00351 36036 ft 407 kts 264°
2026-05-04 19:09 52.47616 13.95724 36258 ft 407 kts 264°
2026-05-04 19:10 52.47358 13.91093 36466 ft 407 kts 264°
2026-05-04 19:10 52.47101 13.86528 36665 ft 407 kts 264°
2026-05-04 19:10 52.46839 13.81900 36865 ft 407 kts 264°
2026-05-04 19:10 52.46575 13.77278 37068 ft 407 kts 264°
2026-05-04 19:11 52.46309 13.72651 37255 ft 407 kts 264°
2026-05-04 19:11 52.46072 13.68545 37422 ft 407 kts 264°
2026-05-04 19:11 52.45803 13.63922 37604 ft 407 kts 264°
2026-05-04 19:11 52.45632 13.61003 37713 ft 407 kts 264°
2026-05-04 19:12 52.45360 13.56383 37879 ft 407 kts 264°
2026-05-04 19:12 52.44811 13.47138 37940 ft 407 kts 264°
2026-05-04 19:13 52.44257 13.37929 37939 ft 406 kts 264°
2026-05-04 19:13 52.43695 13.28717 37942 ft 406 kts 263°
2026-05-04 19:14 52.43125 13.19506 37942 ft 406 kts 263°
2026-05-04 19:14 52.42549 13.10309 37942 ft 406 kts 263°
2026-05-04 19:15 52.41966 13.01102 37944 ft 406 kts 263°
2026-05-04 19:15 52.41376 12.91906 37946 ft 406 kts 263°
2026-05-04 19:16 52.40778 12.82710 37946 ft 406 kts 263°
2026-05-04 19:16 52.40178 12.73586 37942 ft 406 kts 263°
2026-05-04 19:17 52.39491 12.64364 37942 ft 405 kts 259°
2026-05-04 19:17 52.38281 12.55358 37940 ft 405 kts 257°
2026-05-04 19:18 52.37036 12.46430 37941 ft 405 kts 257°
2026-05-04 19:18 52.35769 12.37386 37941 ft 405 kts 256°
2026-05-04 19:19 52.34509 12.28466 37945 ft 406 kts 256°
2026-05-04 19:19 52.33221 12.19418 37939 ft 406 kts 256°
2026-05-04 19:20 52.32091 12.11517 37940 ft 406 kts 256°
2026-05-04 19:20 52.31162 12.05057 37946 ft 407 kts 256°
2026-05-04 19:21 52.29908 11.96380 37949 ft 403 kts 256°
2026-05-04 19:21 52.28605 11.87412 37948 ft 409 kts 256°
2026-05-04 19:22 52.27286 11.78390 37946 ft 408 kts 256°
2026-05-04 19:22 52.25979 11.69494 37948 ft 408 kts 256°
2026-05-04 19:23 52.24646 11.60481 37944 ft 409 kts 256°
2026-05-04 19:23 52.23307 11.51474 37947 ft 409 kts 256°
2026-05-04 19:24 52.21959 11.42461 37948 ft 409 kts 256°
2026-05-04 19:24 52.20604 11.33449 37946 ft 409 kts 255°
2026-05-04 19:25 52.19244 11.24460 37946 ft 410 kts 255°
2026-05-04 19:25 52.17873 11.15448 37947 ft 410 kts 255°
2026-05-04 19:26 52.16632 11.07332 37952 ft 410 kts 255°
2026-05-04 19:26 52.15704 11.01291 37958 ft 411 kts 255°
2026-05-04 19:27 52.12589 10.81138 37965 ft 408 kts 256°